This is the latest recevied weather packets stored in our database for station/object K0QED. If no packets are shown the sender has not sent any weather packets the latest 10 day(s).
| Time | Temp. | Humidity | Pressure | Rain* | Wind** | Luminosity | Snow |
|---|---|---|---|---|---|---|---|
| 1777862025 | 12.22° C | 35% | 1017 hPa | 0 mm | - | 0 W/m² | - |
| 1777861720 | 12.78° C | 34% | 1017.1 hPa | 0 mm | - | 0 W/m² | - |
| 1777861418 | 12.78° C | 34% | 1017 hPa | 0 mm | - | 0 W/m² | - |
| 1777861114 | 12.78° C | 36% | 1017.1 hPa | 0 mm | - | 0 W/m² | - |
| 1777860812 | 12.78° C | 31% | 1017 hPa | 0 mm | - | 0 W/m² | - |
| 1777860508 | 12.78° C | 35% | 1017.1 hPa | 0 mm | - | 0 W/m² | - |
| 1777860205 | 12.78° C | 36% | 1016.9 hPa | 0 mm | - | 0 W/m² | - |
| 1777859901 | 12.78° C | 36% | 1016.9 hPa | 0 mm | - | 0 W/m² | - |
| 1777859597 | 12.78° C | 34% | 1016.6 hPa | 0 mm | - | 0 W/m² | - |
| 1777859294 | 12.78° C | 34% | 1016.6 hPa | 0 mm | - | 0 W/m² | - |
| 1777858989 | 13.33° C | 33% | 1016.7 hPa | 0 mm | - | 3 W/m² | - |
| 1777858688 | 13.33° C | 32% | 1016.7 hPa | 0 mm | - | 4 W/m² | - |
| 1777858385 | 13.89° C | 32% | 1016.5 hPa | 0 mm | - | 6 W/m² | - |
| 1777858081 | 13.89° C | 33% | 1016.5 hPa | 0 mm | - | 8 W/m² | - |
| 1777857780 | 13.89° C | 32% | 1016.7 hPa | 0 mm | - | 10 W/m² | - |
| 1777857476 | 13.89° C | 32% | 1016.6 hPa | 0 mm | - | 12 W/m² | - |
| 1777857173 | 14.44° C | 32% | 1016.4 hPa | 0 mm | - | 13 W/m² | - |
| 1777856869 | 14.44° C | 31% | 1016.6 hPa | 0 mm | - | 15 W/m² | - |
| 1777856564 | 14.44° C | 30% | 1016.6 hPa | 0 mm | - | 16 W/m² | - |
| 1777856262 | 15° C | 31% | 1016.5 hPa | 0 mm | - | 18 W/m² | - |
| 1777855958 | 15° C | 30% | 1016.4 hPa | 0 mm | - | 23 W/m² | - |
| 1777855656 | 15° C | 29% | 1016.2 hPa | 0 mm | - | 26 W/m² | - |
| 1777855353 | 15° C | 29% | 1016.4 hPa | 0 mm | - | 26 W/m² | - |
| 1777855050 | 15° C | 29% | 1016.2 hPa | 0 mm | - | 34 W/m² | - |
| 1777854747 | 15° C | 29% | 1016.4 hPa | 0 mm | - | 43 W/m² | - |
* Rain latest hour (hover to see other rain measurements)
** Current wind speed in m/s (hover to see current wind gust speed)